CSIM (43793 NORAD) Tracking and Keplerian Element Data

This shows tracking and keplerian element data for the satellite.

Feedback or suggestion? Click here.




ElementValue
Catalog43793
NameCSIM
Epoch Orbit4189
Epoch Day254.8828244
Epoch Year2019
RAAN325.8182
Inclination97.7348
Eccentricity0.0014075
Argument of Perigee49.6395
Mean Anonmoly310.6053
Mean Motion14.95758763
Decay Rate8.27E-06
L11 43793U 18099AM 19254.88282440 .00000827 00000-0 79229-4 0 9990
L22 43793 97.7348 325.8182 0014075 49.6395 310.6053 14.95758763 41893

Live tracking and technical data element details for CSIM (NORAD 43793). CSIM can be tracked NOW for your location showing map with azimuth and elevation plus other details from your city location.

Track the satellite on the map from your city or location and see movement details for azimuth, elevation, latitude, longitude, range, height, and movement on the map or in text.







IsCatalogInMostPopularTable: catalog: 43793, numindb: 108
Update: records affected: 1



GetName: 43793 CSIM

Hit Count: updated at: Tue, 17 Sep 2019 20:55:02 GMT